[[[{"header":{"parameterUnit":"kt","parameterCategory":2,"dx":1,"dy":1,"la1":30.253999710083008,"la2":30.299108505249023,"lo1":-89.0895004272461,"lo2":-89.04439544677734,"nx":28,"ny":28,"refTime":"2022-09-18T21:00:00:Z","depth":0,"parameterNumber":1,"parameterNumberName":"U-component_of_WINDS"},"data":[-0.8071,-0.8152,-0.8181,-0.8288,-0.8332,-0.841,-0.8447,-0.8499,-0.8547,-0.8644,-0.8704,-0.8743,-0.8803,-0.8884,-0.8951,-0.8967,-0.8994,-0.9,-0.9018,-0.896,-0.8954,-0.8948,-0.8931,-0.9006,-0.9006,-0.9074,-0.9075,-0.9075,-0.8025,-0.8069,-0.8134,-0.8217,-0.8273,-0.8284,-0.8351,-0.8397,-0.8467,-0.8527,-0.8589,-0.8676,-0.875,-0.8809,-0.8885,-0.8924,-0.8934,-0.8942,-0.894,-0.895,-0.8888,-0.887,-0.8933,-0.8933,-0.8933,-0.8933,-0.8933,-0.8933,-0.7949,-0.7996,-0.8064,-0.8135,-0.8185,-0.824,-0.8291,-0.8337,-0.8401,-0.8483,-0.8506,-0.8586,-0.8653,-0.8759,-0.8802,-0.8865,-0.8861,-0.888,-0.8885,-0.8889,-0.8889,-0.8787,-0.8879,-0.8879,-0.8879,-0.8879,-0.8879,0,-0.7903,-0.7924,-0.7989,-0.8062,-0.8115,-0.8175,-0.8235,-0.8267,-0.8323,-0.8374,-0.845,-0.8499,-0.8596,-0.8672,-0.8749,-0.8791,-0.8809,-0.8814,-0.8827,-0.8817,-0.8797,-0.8809,-0.8708,-0.8811,-0.8811,-0.881,-0.881,-0.881,-0.7828,-0.788,-0.7965,-0.8007,-0.8047,-0.8113,-0.8158,-0.8204,-0.8251,-0.8332,-0.8372,-0.8448,-0.8511,-0.8628,-0.8683,-0.8756,-0.8765,-0.8801,-0.8776,-0.8764,-0.8766,-0.8762,-0.8768,-0.8805,-0.8806,-0.8806,-0.8807,0,-0.7784,-0.7832,-0.7922,-0.8002,-0.8024,-0.8076,-0.8144,-0.8194,-0.8234,-0.8308,-0.8328,-0.839,-0.8465,-0.8514,-0.8609,-0.8632,-0.8719,-0.8727,-0.8696,-0.8701,-0.8738,-0.8734,-0.8851,-0.8869,-0.8791,-0.8792,-0.8792,0,-0.7739,-0.7806,-0.7875,-0.7925,-0.8,-0.8045,-0.8119,-0.816,-0.8218,-0.8277,-0.8305,-0.8359,-0.8413,-0.8475,-0.851,-0.859,-0.8608,-0.8631,-0.8639,-0.8629,-0.8626,-0.8655,-0.8651,-0.8656,-0.8656,-0.8655,-0.8655,0,-0.7664,-0.7779,-0.7861,-0.7895,-0.7987,-0.8024,-0.8064,-0.813,-0.8174,-0.824,-0.8269,-0.8343,-0.8383,-0.8439,-0.8483,-0.8464,-0.8582,-0.8566,-0.8606,-0.8605,-0.863,-0.8628,-0.8719,-0.8654,-0.8654,-0.8653,-0.8653,0,-0.7636,-0.7701,-0.7812,-0.7889,-0.7917,-0.7971,-0.8046,-0.8103,-0.8171,-0.8196,-0.8248,-0.8273,-0.8347,-0.8327,-0.843,-0.8393,-0.8431,-0.846,-0.8463,-0.8473,-0.8449,-0.8495,-0.8576,-0.8587,-0.8482,-0.848,-0.8479,0,-0.7537,-0.7662,-0.7701,-0.7805,-0.787,-0.7896,-0.7957,-0.8016,-0.8054,-0.8115,-0.8158,-0.8227,-0.8222,-0.8251,-0.8295,-0.8343,-0.8391,-0.8338,-0.8425,-0.8428,-0.8407,-0.8482,-0.8482,-0.8553,-0.8462,-0.8463,-0.8465,0,-0.7466,-0.7577,-0.7593,-0.7634,-0.7719,-0.7774,-0.7843,-0.7921,-0.7959,-0.8023,-0.8083,-0.8181,-0.8182,-0.8229,-0.8256,-0.83,-0.836,-0.8295,-0.8298,-0.8305,-0.8457,-0.8456,-0.8468,-0.8369,-0.8371,-0.8373,-0.8451,0,-0.7413,-0.7482,-0.7527,-0.7616,-0.7665,-0.7734,-0.7786,-0.7831,-0.7852,-0.7892,-0.7981,-0.8043,-0.8123,-0.815,-0.8171,-0.8256,-0.825,-0.825,-0.8234,-0.8283,-0.831,-0.8321,-0.8189,-0.8189,-0.8189,-0.8189,0,0,-0.7306,-0.7406,-0.7447,-0.7516,-0.756,-0.7587,-0.7655,-0.7702,-0.7796,-0.7826,-0.7817,-0.7965,-0.8016,-0.8119,-0.8138,-0.8171,-0.8191,-0.8172,-0.8259,-0.8267,-0.8274,-0.8302,-0.8313,-0.8189,-0.8189,-0.8189,-0.8189,0,-0.7297,-0.7348,-0.7414,-0.7464,-0.754,-0.7578,-0.7594,-0.7674,-0.7702,-0.779,-0.7811,-0.7871,-0.7988,-0.804,-0.8081,-0.816,-0.8174,-0.8181,-0.8206,-0.8256,-0.8264,-0.8271,-0.83,-0.8309,-0.8188,-0.8188,-0.8188,0,-0.7237,-0.7295,-0.7333,-0.7435,-0.7485,-0.7551,-0.7547,-0.7617,-0.7666,-0.7693,-0.778,-0.7821,-0.7895,-0.7985,-0.8027,-0.8021,-0.8156,-0.8123,-0.8125,-0.8131,-0.8182,-0.8191,-0.8199,-0.8091,-0.809,-0.809,0,0,-0.7222,-0.7287,-0.7364,-0.7437,-0.7467,-0.7526,-0.7566,-0.7592,-0.7656,-0.7682,-0.7736,-0.7799,-0.7868,-0.7912,-0.7979,-0.8071,-0.809,-0.8108,-0.8113,-0.8117,-0.8124,-0.8176,-0.8185,-0.8088,-0.8088,-0.8088,0,0,-0.7216,-0.7308,-0.7318,-0.741,-0.747,-0.7552,-0.7595,-0.761,-0.7675,-0.7673,-0.7721,-0.774,-0.7825,-0.7866,-0.7831,-0.7975,-0.7958,-0.7968,-0.7945,-0.7952,-0.7956,-0.7945,-0.7837,0,0,0,0,0,-0.7234,-0.7296,-0.7305,-0.7328,-0.7458,-0.7547,-0.7564,-0.7604,-0.7591,-0.7625,-0.7672,-0.7684,-0.7857,-0.7828,-0.785,-0.7889,-0.806,-0.8065,-0.807,-0.8063,-0.8069,-0.8074,0,0,0,0,0,0,-0.7243,-0.7271,-0.7303,-0.7386,-0.7416,-0.7545,-0.7532,-0.7545,-0.7589,-0.759,-0.7674,-0.7687,-0.7723,-0.7819,-0.7839,-0.7874,-0.783,-0.8062,-0.8066,-0.807,-0.8065,-0.807,-0.8075,0,0,0,0,0,-0.7251,-0.7273,-0.7471,-0.7386,-0.7412,-0.7481,-0.753,-0.7541,-0.7576,-0.765,-0.7662,-0.7602,-0.7723,-0.7743,-0.7831,-0.7864,-0.7817,-0.7824,-0.8065,-0.8068,-0.8071,-0.8068,0,0,0,0,0,0,-0.7257,-0.7284,-0.7477,-0.7486,-0.7365,-0.7474,-0.7493,-0.7537,-0.7633,-0.7646,-0.7579,-0.7579,-0.7724,-0.7739,-0.7754,-0.7858,-0.7806,-0.7813,-0.7818,-0.8068,-0.807,-0.8072,0,0,0,0,0,0,-0.7272,-0.7292,-0.7482,-0.7453,-0.746,-0.7468,-0.7484,-0.7565,-0.7634,-0.7558,-0.7561,-0.7578,-0.7702,-0.7737,-0.7748,-0.7873,-0.7798,-0.7805,-0.781,-0.7813,-0.807,-0.8072,0,0,0,0,0,0,-0.7281,-0.7298,-0.7451,-0.7456,-0.7462,-0.757,-0.7541,-0.7671,-0.7609,-0.7553,-0.7604,-0.7602,-0.7699,-0.7712,-0.7744,-0.7864,-0.7871,-0.7798,-0.7803,-0.7806,-0.7808,0,0,0,0,0,0,0,-0.7289,-0.7166,-0.7421,-0.7458,-0.7463,-0.7573,-0.7575,-0.7578,-0.7608,-0.7607,-0.7605,-0.7603,-0.7758,-0.7765,-0.7773,-0.7857,0,0,-0.7797,-0.7801,0,0,0,0,0,0,0,0,-0.716,-0.7164,-0.7422,-0.7423,-0.7425,-0.7573,-0.7575,-0.7577,-0.7608,-0.7607,-0.7605,-0.7604,-0.776,-0.7766,-0.7772,0,0,0,0,0,0,0,0,0,0,0,0,0,0,0,-0.7422,-0.7423,0,-0.7574,-0.7575,-0.7577,-0.7608,-0.7607,-0.7606,-0.7604,-0.7761,-0.7767,-0.7772,0,0,0,0,0,0,0,0,0,0,0,0,0,0,0,0,0,0,0,0,0,0,0,0,0,0,0,0,0,0,0,0,0,0,0,0,0,0,0,0,0,0,0,0,0,0,0,0,0,0,0,0,0,0,0,0,0,0,0,0,0,0,0,0,0,0,0,0,0]}],[{"header":{"parameterUnit":"kt","parameterCategory":2,"dx":1,"dy":1,"la1":30.253999710083008,"la2":30.299108505249023,"lo1":-89.0895004272461,"lo2":-89.04439544677734,"nx":28,"ny":28,"refTime":"2022-09-18T21:00:00:Z","depth":0,"parameterNumber":2,"parameterNumberName":"V-component_of_WINDS"},"data":[-6.389,-6.3996,-6.3988,-6.4104,-6.4116,-6.4193,-6.4218,-6.4248,-6.427,-6.4359,-6.4408,-6.4408,-6.4424,-6.4479,-6.453,-6.4528,-6.4552,-6.4596,-6.4586,-6.4398,-6.4371,-6.4346,-6.4322,-6.4601,-6.4601,-6.4783,-6.4785,-6.4786,-6.3754,-6.3768,-6.3827,-6.3878,-6.3928,-6.3881,-6.3917,-6.3961,-6.4031,-6.4057,-6.4105,-6.4182,-6.424,-6.424,-6.4294,-6.4342,-6.4322,-6.4357,-6.4354,-6.4358,-6.4156,-6.413,-6.4372,-6.4372,-6.4372,-6.4372,-6.4372,-6.4372,-6.3505,-6.3568,-6.3595,-6.3658,-6.3681,-6.3715,-6.3773,-6.3773,-6.3828,-6.3885,-6.3862,-6.3939,-6.3962,-6.4021,-6.4038,-6.4097,-6.4055,-6.409,-6.41,-6.4109,-6.4123,-6.3864,-6.4105,-6.4104,-6.4103,-6.4103,-6.4102,0,-6.332,-6.3309,-6.3364,-6.3418,-6.3463,-6.3503,-6.3537,-6.3572,-6.3542,-6.3589,-6.3656,-6.3693,-6.3763,-6.3824,-6.3871,-6.3881,-6.3835,-6.3828,-6.3853,-6.3867,-6.3874,-6.3874,-6.3546,-6.3822,-6.3819,-6.3817,-6.3816,-6.3815,-6.3069,-6.3143,-6.3166,-6.3206,-6.3223,-6.3287,-6.3323,-6.3291,-6.3331,-6.3366,-6.3423,-6.3483,-6.353,-6.3636,-6.3631,-6.3683,-6.3662,-6.3768,-6.3669,-6.368,-6.3665,-6.3662,-6.367,-6.3789,-6.3792,-6.3795,-6.3797,0,-6.2929,-6.2914,-6.3026,-6.3039,-6.3045,-6.3124,-6.3135,-6.3195,-6.3187,-6.3268,-6.3285,-6.3272,-6.3337,-6.3315,-6.3383,-6.337,-6.3498,-6.3474,-6.349,-6.3485,-6.358,-6.3572,-6.3887,-6.3927,-6.3635,-6.3638,-6.364,0,-6.271,-6.2808,-6.278,-6.2845,-6.2953,-6.2918,-6.3025,-6.3028,-6.3048,-6.3112,-6.3056,-6.3117,-6.3079,-6.3136,-6.3116,-6.3216,-6.3229,-6.3225,-6.3219,-6.3231,-6.3232,-6.3252,-6.3239,-6.3199,-6.3198,-6.3196,-6.3195,0,-6.2493,-6.2592,-6.2698,-6.2718,-6.2742,-6.2792,-6.2804,-6.2825,-6.286,-6.2901,-6.2924,-6.2974,-6.3001,-6.304,-6.3015,-6.2949,-6.3136,-6.304,-6.3132,-6.3133,-6.3176,-6.3174,-6.3457,-6.3193,-6.3193,-6.3192,-6.3191,0,-6.2314,-6.2359,-6.2515,-6.2533,-6.256,-6.2629,-6.2678,-6.2732,-6.2758,-6.275,-6.2782,-6.2742,-6.2827,-6.2733,-6.2849,-6.2771,-6.2801,-6.2804,-6.281,-6.2818,-6.2714,-6.2879,-6.3149,-6.3178,-6.2823,-6.282,-6.2817,0,-6.2072,-6.2224,-6.2196,-6.2344,-6.2412,-6.2346,-6.2421,-6.2446,-6.2442,-6.2497,-6.2491,-6.2554,-6.2479,-6.2496,-6.2556,-6.2553,-6.2655,-6.2538,-6.2618,-6.2621,-6.2615,-6.2863,-6.291,-6.3092,-6.2778,-6.2782,-6.2785,0,-6.1882,-6.1911,-6.1939,-6.1961,-6.1989,-6.2044,-6.2131,-6.2186,-6.2225,-6.2257,-6.2329,-6.2415,-6.2363,-6.239,-6.2363,-6.2427,-6.2584,-6.2361,-6.2361,-6.2404,-6.2755,-6.28,-6.283,-6.2551,-6.2556,-6.256,-6.2753,0,-6.1618,-6.1692,-6.1767,-6.1815,-6.1855,-6.1945,-6.1923,-6.1967,-6.1937,-6.1931,-6.2034,-6.2047,-6.2102,-6.213,-6.21,-6.2254,-6.2225,-6.2168,-6.2076,-6.2238,-6.2301,-6.2327,-6.1984,-6.1981,-6.1978,-6.1976,0,0,-6.139,-6.1496,-6.1461,-6.1545,-6.1576,-6.1506,-6.1605,-6.1626,-6.1671,-6.1694,-6.1642,-6.1767,-6.1779,-6.1908,-6.1956,-6.1977,-6.2003,-6.1947,-6.2161,-6.2181,-6.22,-6.2269,-6.2296,-6.1972,-6.1971,-6.197,-6.197,0,-6.129,-6.1307,-6.1406,-6.1427,-6.1457,-6.1446,-6.147,-6.1486,-6.1487,-6.1588,-6.1528,-6.1586,-6.1686,-6.1708,-6.1732,-6.1931,-6.1882,-6.1948,-6.2064,-6.2137,-6.2161,-6.2182,-6.2254,-6.228,-6.1964,-6.1964,-6.1964,0,-6.11,-6.1114,-6.1159,-6.1226,-6.1245,-6.1315,-6.1214,-6.1292,-6.1343,-6.126,-6.1362,-6.1366,-6.1392,-6.1516,-6.157,-6.1524,-6.1773,-6.1689,-6.1704,-6.171,-6.1779,-6.1808,-6.1834,-6.1497,-6.1495,-6.1494,0,0,-6.1016,-6.1084,-6.1088,-6.1203,-6.1219,-6.1203,-6.1238,-6.1212,-6.1238,-6.1249,-6.1253,-6.128,-6.1337,-6.1376,-6.1428,-6.1567,-6.157,-6.1633,-6.1655,-6.1673,-6.1689,-6.1763,-6.1792,-6.1488,-6.1488,-6.1488,0,0,-6.0976,-6.0985,-6.0951,-6.1082,-6.111,-6.112,-6.1191,-6.1149,-6.1194,-6.1181,-6.1139,-6.1144,-6.1259,-6.1265,-6.1191,-6.1395,-6.1304,-6.1321,-6.1388,-6.1415,-6.1437,-6.1433,-6.1088,0,0,0,0,0,-6.0862,-6.0984,-6.0953,-6.0972,-6.1055,-6.1138,-6.1148,-6.1117,-6.1054,-6.1111,-6.1108,-6.1052,-6.1216,-6.115,-6.1168,-6.1251,-6.1414,-6.1428,-6.144,-6.1557,-6.1586,-6.1611,0,0,0,0,0,0,-6.0869,-6.0892,-6.0949,-6.0965,-6.0984,-6.1133,-6.1019,-6.1014,-6.1047,-6.1036,-6.1055,-6.1053,-6.1027,-6.1138,-6.1155,-6.1235,-6.1082,-6.142,-6.1431,-6.1441,-6.1567,-6.1591,-6.1611,0,0,0,0,0,-6.0874,-6.0893,-6.1036,-6.0963,-6.0979,-6.0968,-6.1015,-6.1009,-6.1034,-6.1029,-6.1026,-6.1008,-6.103,-6.1042,-6.1148,-6.1228,-6.107,-6.1076,-6.1427,-6.1436,-6.1443,-6.1579,0,0,0,0,0,0,-6.0878,-6.0888,-6.1038,-6.1042,-6.0915,-6.0959,-6.0964,-6.1005,-6.1025,-6.1023,-6.098,-6.097,-6.1034,-6.1042,-6.1052,-6.1227,-6.106,-6.1066,-6.1071,-6.1433,-6.144,-6.1446,0,0,0,0,0,0,-6.0878,-6.0892,-6.104,-6.0981,-6.0978,-6.095,-6.0956,-6.104,-6.1026,-6.0974,-6.0966,-6.0975,-6.1019,-6.1044,-6.1051,-6.1184,-6.1052,-6.1059,-6.1063,-6.1066,-6.1439,-6.1444,0,0,0,0,0,0,-6.0883,-6.0895,-6.098,-6.0977,-6.0974,-6.1013,-6.1024,-6.1111,-6.0977,-6.0974,-6.0964,-6.0958,-6.1021,-6.1028,-6.105,-6.1181,-6.1183,-6.1053,-6.1057,-6.106,-6.1062,0,0,0,0,0,0,0,-6.0887,-6.0815,-6.1017,-6.0974,-6.0971,-6.1076,-6.1077,-6.1078,-6.0976,-6.0971,-6.0965,-6.0961,-6.1016,-6.1023,-6.103,-6.1178,0,0,-6.1052,-6.1055,0,0,0,0,0,0,0,0,-6.081,-6.0814,-6.1017,-6.1018,-6.1019,-6.1076,-6.1077,-6.1078,-6.0975,-6.0971,-6.0967,-6.0963,-6.1018,-6.1024,-6.103,0,0,0,0,0,0,0,0,0,0,0,0,0,0,0,-6.1017,-6.1018,0,-6.1076,-6.1077,-6.1078,-6.0974,-6.0971,-6.0967,-6.0964,-6.102,-6.1024,-6.1029,0,0,0,0,0,0,0,0,0,0,0,0,0,0,0,0,0,0,0,0,0,0,0,0,0,0,0,0,0,0,0,0,0,0,0,0,0,0,0,0,0,0,0,0,0,0,0,0,0,0,0,0,0,0,0,0,0,0,0,0,0,0,0,0,0,0,0,0,0]}]]]